STARLINK-11198, 60114

Orbit data source: Space-Track

STARLINK-11198, 60114 is a payload satellite owned by SpaceX/Seattle (US) in LEO that was launched on Mon, 24 Jun 2024 UTC via an FALCON 9 launch vehicle from the Air Force Western Test Range (AFWTR). Payload-class satellites include a variety of spacecraft equipped with specific instruments for various scientific and technological missions. These include communications satellites like Starlink; space stations such as the ISS; scientific satellites like the Hubble; Earth observation satellites from companies like Planet Labs, Umbra, and HawkEye 360; GPS; miniature CubeSats for education and research; and military/defense satellites.

Loading next visibility...
Identifier
60114, 2024-118B
Orbit
LEO
Country
Flag of USUS
Related business
Manufacturer
SpaceX/Seattle
Mission
Operational spacecraft
Bus & Motor
STARLINK V2MD, Unknown motor
Mass
960 kg wet, ~910 kg dry
Launch date (UTC)
2024-06-24 (1 year ago)
Launch vehicle
FALCON 9
Launch site
Air Force Western Test Range (AFWTR)
Object type
Payload
Rocket body
Debris
Shape & HBR
Unknown
Radar Cross Section
Large (>1 m²)

Expand to show TLE details & history
Last TLE update: 17 hours ago

TLE from 17 hours ago
0 STARLINK-11198
1 60114U 24118B   25261.55228172  .00000667  00000-0  10364-4 0  9993
2 60114  53.1589 350.0989 0001118  72.0548 288.0592 15.69698989 70951
Epoch: 2025-09-18T13:15Z
TLE epoch observation values (Epoch: 2025-09-18T13:15:17.14Z)
Latitude
-0.00001°
Longitude
153.56524°
Altitude
360.44 km
Speed
7.694 km/s
True Right ascension
23h 20m 23s
True Declination
0° 00' 00"
Sunlit
Object was in full shadow at epoch
Visualization orbit readout
Latitude
Unknown
Longitude
Unknown
Altitude
Unknown
Speed
Unknown
Apparent Right ascension
Unknown
Apparent Declination
Unknown
Sunlit
N/A
Visualization observer readout
Local Sidereal Time
22:50:41
Azimuth
Unknown
Elevation
Unknown
Doppler factor
Unknown
Orbital elements
Apogee altitude
360.772 km
Perigee altitude
359.266 km
Semi-major axis
6,738.156 km
Eccentricity
0.00011
Inclination
53.1589°
RAAN
350.0989°
Arg. of periapsis
72.0548°
True anomaly
288.04702°
Mean anomaly
288.0592°
Eccentric anomaly
288.05311°
Mean motion
3.92402 °/min
Orbital period
91.74 mins
BSTAR
0.000010364
Loading maneuver chart data...
Computing Atmospheric mass density...
Loading historical data...
Loading historical data...
Loading historical data...
Loading historical data...
Loading historical data...
Loading historical data...
Loading historical data...

Documentation

Showing up to 5 results
|